OBJECT Z

基本信息
目录编号:
68439
目录名称:
OBJECT Z
国际标识:
2026-067Z
轨道中心:
EARTH
物体状态:
在轨
发射日期:
2026-03-30 UTC
国别:
(TBD)
轨道信息
数据来源: 国际轨道数据
星历时间: 2026-09-05T11:23:00+0800
半长轴: 6879.392km
偏心率: 0.0004529
轨道倾角: 97.457°
近地点辐角: 114.652°
升交点赤经: 205.748°
平近点角: 245.519°
近地点: 498.139km
远地点: 504.371km
周期: 94.642分钟
每日圈数: 15.215201
详细信息
发射场:
AFWTR
轨道高度:
LEO
数据来源:
AOE Integration Group
参考系:
TEME
时间系统:
UTC
历元类型:
SGP4
2D轨道图
3D轨道图
轨道高度分析图
轨道倾角分析图
轨道综合分析图
查看轨道综合分析图